Wind_Speed
12 15 19 23 23 20 19 19 19 19 20 20 18 17 16 16 16 15 15 13 12 11 10 9 10 10 10 10 9 8 8 7 6 5 5 5 5 5 6 6 6 7 8 8 9 9 9 9 10 10 9 9 9 8 8 8 8 8 8 7 7 7 7 7 8 9 10 11 11 12 14 15 16 16 17 16 17 18 18 17 17 17 17 17 17
13 13 15 21 24 24 23 23 23 22 23 23 22 20 19 19 18 19 19 18 17 15 14 13 13 12 13 13 13 12 12 11 10 10 9 9 8 8 8 8 7 8 8 9 9 10 10 10 10 11 11 11 11 11 12 12 12 11 11 10 10 10 10 11 11 11 13 14 14 15 16 17 17 18 19 19 19 20 20 19 19 19 19 19 19
12 12 14 19 23 25 26 27 26 26 24 24 23 22 21 21 20 20 21 21 20 20 19 18 17 16 15 14 14 14 14 14 14 14 13 13 12 11 11 11 11 10 10 10 10 11 12 12 11 11 12 12 12 12 13 13 14 14 15 14 14 14 13 13 14 14 14 16 17 17 18 18 19 20 21 21 22 22 22 22 22 21 20 20 20
8 10 14 17 20 24 27 27 26 25 23 22 22 22 21 21 21 21 22 22 22 22 24 23 22 21 18 16 16 16 16 17 16 16 16 16 16 14 12 13 13 11 11 11 11 12 13 14 13 13 14 14 14 14 14 14 14 14 15 16 16 17 17 18 17 17 17 17 18 19 19 19 20 21 22 23 23 24 24 24 24 23 22 22 21
7 7 11 15 18 21 23 23 24 25 25 25 25 24 23 24 24 24 25 24 23 23 25 26 26 24 22 20 20 21 21 20 18 17 17 17 17 16 14 14 13 12 12 12 11 12 14 15 15 15 15 16 16 16 16 16 16 16 15 16 17 17 19 20 20 21 21 20 19 20 20 21 20 21 22 23 23 24 24 25 25 24 24 23 22
9 8 9 12 14 15 16 19 23 26 28 28 26 26 28 29 29 30 30 27 23 22 23 26 27 25 23 22 24 26 27 25 22 20 19 17 16 16 15 13 12 11 11 12 12 13 15 16 17 17 17 18 18 18 18 18 18 18 18 18 19 20 21 21 22 23 24 24 24 23 22 22 23 23 23 24 24 24 25 25 25 25 25 25 24
7 7 7 8 9 10 12 15 19 23 27 28 27 27 28 29 29 30 29 26 22 22 25 26 26 25 23 24 27 29 29 28 24 22 22 22 21 18 16 13 12 13 13 13 14 15 17 19 21 21 21 21 21 21 21 21 21 21 21 22 23 23 24 25 25 25 25 26 26 26 26 25 25 25 26 26 26 26 26 26 26 26 26 27 27
5 5 5 6 6 7 8 10 13 17 20 22 22 23 22 22 23 23 23 21 21 23 26 26 27 27 27 27 28 28 29 27 22 18 20 23 25 24 21 19 18 19 18 17 17 18 19 22 24 25 25 25 25 25 24 23 23 24 24 25 25 26 26 27 28 28 29 28 28 29 29 28 28 28 28 28 28 28 28 28 27 27 28 29 29
7 7 8 8 8 8 7 8 9 11 13 15 17 18 19 19 20 19 18 19 19 20 21 21 21 22 23 24 22 22 24 23 18 17 18 21 24 25 26 25 25 24 23 22 21 20 21 23 25 25 26 26 26 27 27 26 25 25 26 27 27 28 28 29 30 31 31 31 31 32 32 32 32 32 32 31 31 30 30 30 30 29 30 30 30
11 11 11 11 11 11 10 9 9 10 12 13 15 16 17 17 17 17 17 17 18 18 18 18 16 15 17 19 19 20 21 20 19 20 21 21 22 23 25 27 28 29 28 27 26 25 25 26 28 27 26 26 26 27 27 27 26 27 27 28 29 30 31 31 33 34 34 35 35 35 35 35 35 36 36 36 37 36 35 35 34 33 33 34 32
15 15 13 12 13 13 13 13 13 14 14 15 15 16 16 17 17 17 18 18 19 19 19 19 18 17 18 20 21 22 22 22 23 23 22 22 23 24 25 26 29 31 31 29 28 28 29 31 31 30 28 28 29 29 28 28 28 28 29 30 30 31 32 33 34 35 36 37 37 37 37 37 37 38 38 39 41 41 41 40 40 39 39 39 37
16 16 16 15 16 16 16 16 17 18 18 18 19 19 19 20 20 21 22 22 23 23 23 22 22 22 22 23 24 25 25 26 26 26 25 24 24 25 26 27 29 31 31 31 30 31 31 33 33 32 32 32 31 31 30 29 29 30 30 30 30 31 32 33 34 35 36 37 37 36 37 38 38 38 39 40 41 42 42 42 42 42 42 42 42
16 17 17 17 18 18 19 19 20 20 21 20 20 20 20 20 21 22 23 24 24 24 24 25 24 25 26 27 28 29 29 28 27 26 25 25 25 26 27 28 29 30 31 32 31 31 32 33 33 34 35 34 33 32 31 30 30 31 30 30 30 31 32 32 33 35 36 37 37 36 36 37 38 37 37 38 39 39 40 40 40 42 42 42 43
18 18 18 18 19 19 20 20 21 21 21 20 20 20 20 20 21 22 23 24 25 25 25 25 26 26 27 28 29 29 28 27 26 24 24 25 26 26 26 27 29 30 31 31 30 31 32 32 33 35 36 34 33 33 32 32 32 31 31 30 31 32 32 32 34 36 37 38 39 37 36 35 36 35 34 35 37 37 37 38 39 40 41 41 42
19 19 19 19 20 20 19 20 20 19 19 19 19 20 20 21 21 22 23 24 25 25 26 26 26 26 27 28 28 26 24 24 24 24 24 25 26 25 25 25 27 29 30 30 30 31 33 34 35 36 36 35 35 34 34 35 35 33 33 32 32 33 33 33 35 37 38 38 39 38 36 35 34 34 33 33 34 35 36 37 37 38 39 39 40
21 21 21 20 20 20 20 20 19 18 17 17 18 19 20 21 22 23 24 25 25 25 26 26 26 26 27 27 28 26 24 24 24 25 26 26 26 26 26 25 26 27 30 31 31 33 35 37 38 38 37 36 36 35 35 36 37 36 35 35 35 35 35 35 36 37 38 38 38 37 37 35 34 33 33 33 34 35 36 37 37 37 38 39 39
21 22 22 22 21 21 21 21 20 19 18 17 17 18 20 21 22 23 24 24 25 25 26 26 26 27 27 27 27 25 25 25 26 27 28 28 28 28 27 26 25 27 31 33 34 36 37 38 38 38 37 36 36 36 37 37 37 36 36 36 36 36 36 36 37 38 38 37 36 36 36 36 35 34 34 35 35 36 37 38 37 37 39 40 39
22 23 24 24 23 23 23 23 22 22 21 20 19 19 20 21 22 23 23 24 24 24 25 26 26 26 25 25 24 23 23 23 24 25 26 27 27 27 26 26 26 29 32 35 36 37 37 37 37 36 36 36 37 37 37 36 36 36 36 36 37 37 38 38 38 38 38 37 36 36 36 36 36 36 37 37 37 37 38 39 39 39 40 41 41
22 23 24 25 25 24 24 24 24 24 23 22 21 20 21 22 23 24 25 25 25 25 26 26 27 26 24 23 23 23 23 23 24 24 25 26 26 26 26 26 28 31 33 34 36 36 36 36 36 36 36 36 36 36 35 35 36 37 37 37 37 37 38 38 39 39 39 38 37 37 37 37 38 39 39 39 39 39 40 40 40 41 42 42 42
23 24 25 25 26 26 26 26 26 26 25 24 23 22 22 24 25 26 27 28 28 29 30 30 30 29 28 26 26 26 26 26 26 26 26 27 27 27 27 28 29 32 33 33 34 35 36 36 36 36 36 35 34 33 33 34 35 36 36 36 37 37 37 38 40 40 40 39 39 39 39 39 40 41 41 41 41 40 40 41 41 42 42 43 43
26 26 27 28 28 28 28 28 28 28 28 28 28 27 26 26 26 28 29 30 31 32 33 33 33 33 32 31 31 31 30 30 29 28 28 28 29 29 29 30 30 31 32 33 34 35 36 36 36 36 34 32 31 32 33 34 35 35 35 36 37 38 39 39 40 41 41 41 41 41 41 42 42 42 42 42 41 41 40 40 41 42 42 43 43
28 28 29 30 31 31 30 30 30 31 31 31 30 29 28 28 28 28 30 31 33 34 34 35 34 34 34 34 34 34 34 33 33 32 30 30 30 31 31 31 31 31 31 32 33 34 35 36 36 34 31 30 31 32 34 35 36 36 37 37 38 39 40 41 42 42 42 43 43 43 43 43 43 43 42 42 42 41 41 40 40 41 42 43 43
28 29 30 31 31 31 31 31 31 31 31 30 29 29 29 29 29 28 29 31 32 33 34 35 35 34 34 34 34 34 35 35 35 35 33 32 31 31 31 31 31 30 30 30 31 33 33 33 31 29 29 30 32 34 35 36 37 38 38 39 40 41 41 42 42 43 44 44 45 44 44 44 43 43 43 43 43 43 43 42 41 42 42 43 43
29 30 31 32 32 32 31 30 30 29 28 27 28 29 30 30 30 31 32 31 30 31 33 34 34 34 34 34 34 34 35 35 36 36 35 34 32 32 32 31 30 29 28 28 29 29 29 28 27 27 29 31 32 33 35 36 37 38 39 40 41 41 42 42 43 44 45 45 45 45 45 45 45 45 45 45 45 44 44 44 43 43 43 43 43
31 32 33 33 32 31 30 29 29 28 27 28 29 31 33 33 34 35 35 33 32 34 34 34 34 34 33 33 32 32 33 34 34 35 35 33 32 30 30 29 28 26 25 25 24 23 23 23 25 27 29 31 32 34 35 37 38 38 39 40 41 41 42 43 44 45 46 46 47 47 48 48 48 48 48 47 47 47 47 46 45 44 44 43 44
33 34 35 34 33 32 31 30 30 29 28 29 31 34 35 36 36 37 37 34 33 33 32 32 32 31 30 29 28 28 30 31 32 33 32 31 29 28 27 26 24 23 22 21 20 19 20 22 25 28 30 32 34 35 36 37 38 39 40 41 41 42 43 44 45 46 47 48 49 49 49 50 50 49 49 49 49 48 48 48 47 46 45 44 44
35 36 36 35 33 32 31 30 28 27 28 30 32 34 35 35 34 32 31 30 29 29 29 28 27 27 27 26 26 27 29 30 30 29 28 27 26 24 23 21 20 19 19 18 19 20 21 24 27 30 32 33 34 35 36 37 38 39 39 40 41 42 43 44 46 47 48 49 49 50 50 50 50 50 49 49 49 48 48 47 47 46 45 43 43
39 39 38 36 33 31 29 27 26 26 29 30 32 32 32 31 28 25 25 26 27 27 27 26 25 25 25 26 27 28 29 29 28 25 23 21 20 19 18 18 17 18 19 20 21 22 24 27 29 31 32 33 34 34 35 36 36 38 39 40 42 43 44 45 47 48 49 49 50 50 50 49 49 48 48 48 48 47 46 46 46 46 44 43 42
41 40 38 36 33 30 28 26 25 27 29 29 29 28 27 25 24 24 25 26 26 26 26 26 26 27 27 27 27 28 28 26 24 21 18 16 15 16 16 16 17 18 20 21 23 25 27 29 30 30 31 31 32 32 33 34 36 38 39 41 42 43 45 46 47 48 48 49 49 49 48 47 47 46 45 44 44 43 42 43 43 44 43 42 41
40 39 37 36 34 30 26 25 26 27 27 27 26 24 23 23 24 25 25 25 24 25 25 25 26 26 26 26 26 25 23 20 18 15 14 14 15 15 16 17 18 19 21 23 25 27 28 28 28 28 28 29 30 32 33 35 36 37 39 40 42 43 44 45 46 47 47 47 47 46 46 45 44 43 42 41 40 38 38 38 39 40 40 40 39
37 36 35 34 32 29 27 26 26 26 27 27 25 23 22 23 24 24 24 23 23 23 23 23 23 24 24 23 23 21 18 14 12 11 12 14 15 16 17 18 19 21 23 24 25 25 24 24 25 26 27 29 30 32 33 34 36 37 39 40 40 42 43 43 44 45 45 44 44 44 43 42 41 40 39 38 37 36 35 34 34 34 35 35 34
36 35 33 32 32 31 29 28 29 29 28 27 25 24 24 24 23 23 23 22 22 22 22 22 21 19 18 17 16 14 12 10 10 11 13 14 15 17 18 19 20 22 22 22 21 21 21 23 24 26 27 29 30 31 33 34 35 36 37 38 39 39 41 41 42 42 42 42 41 41 40 39 38 37 36 35 34 33 31 29 27 28 28 29 29
36 34 32 30 30 30 30 30 31 30 28 27 25 25 24 24 23 22 22 21 21 21 22 21 18 15 14 14 12 10 9 10 11 12 14 15 17 18 19 20 19 19 19 19 19 20 21 22 24 25 27 28 29 30 31 32 33 34 35 36 37 37 38 38 39 39 39 38 38 37 37 36 35 34 33 31 31 30 28 25 24 24 25 24 24
35 34 32 31 30 29 30 30 29 28 27 27 26 24 23 22 21 21 20 19 20 20 20 19 16 14 14 13 11 10 10 11 13 14 16 17 18 18 17 16 15 15 16 17 18 19 20 22 23 24 25 26 27 28 29 30 31 32 33 33 34 35 35 35 35 35 34 34 33 33 32 31 31 31 30 29 28 27 25 24 24 24 23 22 20
37 36 34 32 31 31 30 28 26 25 25 25 24 23 22 21 21 21 19 18 18 18 17 16 14 11 10 11 12 12 13 14 15 16 17 17 16 15 13 13 13 14 15 16 17 18 19 20 21 22 23 25 26 27 28 29 29 31 33 34 34 33 32 31 30 30 29 29 29 28 28 28 28 28 27 26 25 24 23 23 23 22 21 21 19
36 35 34 32 31 31 30 28 26 24 24 23 23 23 22 22 22 21 19 18 17 14 11 11 11 10 8 9 12 13 14 15 15 15 14 13 12 11 11 12 13 13 14 14 16 17 17 18 20 21 23 24 26 26 27 28 30 32 35 36 35 33 30 28 27 26 25 25 25 25 25 25 25 24 24 23 21 20 19 19 19 19 19 19 18
35 34 32 31 31 30 29 27 26 25 23 22 23 23 22 21 20 19 18 17 15 11 9 9 11 11 11 11 12 13 14 14 13 12 11 10 9 10 11 12 12 12 13 14 15 15 16 18 19 21 22 24 25 26 27 30 32 35 36 35 33 30 28 26 25 25 24 24 23 23 23 22 20 19 18 17 15 15 15 14 14 14 14 14 14
34 32 31 30 30 29 27 26 26 25 24 23 23 22 21 20 17 16 15 13 10 10 11 12 13 14 14 14 13 12 11 11 10 9 8 8 8 9 10 10 11 11 11 12 13 15 16 18 19 21 23 25 26 28 29 32 34 35 35 33 29 27 25 24 23 23 23 22 21 20 19 17 14 13 12 12 12 12 12 11 12 12 12 13 14
29 30 29 28 27 26 25 24 24 23 23 23 21 19 17 16 14 13 11 10 10 12 15 16 15 15 14 12 11 10 9 8 7 5 4 5 6 7 8 8 9 9 9 11 13 15 17 19 20 23 24 26 27 29 30 32 34 34 33 31 28 25 23 22 21 20 19 18 17 15 13 12 11 11 11 11 12 12 12 12 12 13 14 15 16
25 26 25 24 24 24 23 23 22 22 22 21 18 15 13 13 14 12 12 13 15 16 16 15 14 13 11 10 10 9 6 3 2 2 2 4 5 5 5 5 6 7 9 11 14 16 18 20 22 23 25 26 27 28 29 31 33 33 32 30 28 25 23 22 20 18 16 14 12 11 11 11 12 12 11 10 11 12 12 12 12 12 12 12 13
21 21 20 20 20 21 22 21 20 19 19 18 17 15 15 17 17 16 17 18 17 16 16 15 13 11 9 8 7 5 2 1 0 1 2 2 1 2 3 4 6 8 10 13 15 17 19 21 22 24 25 26 27 28 29 31 32 33 32 30 28 26 24 22 19 16 14 12 11 10 11 12 14 13 11 11 11 13 13 13 12 12 11 11 12
21 20 19 18 18 18 19 19 18 17 18 18 18 19 20 21 19 19 19 18 16 15 14 13 11 10 9 7 5 3 2 2 2 1 1 2 3 4 4 6 8 10 12 14 16 18 19 21 22 24 25 26 27 28 30 31 31 31 31 30 29 27 25 21 17 14 12 11 10 10 11 14 16 16 13 12 13 15 14 13 12 11 11 11 12
19 19 18 18 17 18 18 19 19 19 20 21 23 24 23 21 19 18 18 16 14 14 13 13 11 10 8 7 6 4 3 2 2 2 2 2 3 4 5 7 9 11 12 14 15 17 19 21 23 24 25 26 27 29 30 30 30 30 31 31 30 28 26 22 17 14 11 10 10 10 12 15 17 16 14 12 13 14 14 12 10 9 9 10 9
22 22 23 23 24 24 25 25 25 25 25 25 24 22 19 18 16 15 14 14 13 13 13 12 10 7 5 5 4 3 2 2 1 1 2 2 3 4 6 8 9 11 12 14 15 17 19 21 23 23 24 25 26 28 29 29 29 29 31 31 30 29 26 23 20 16 13 12 11 11 13 14 15 16 15 12 11 11 12 10 9 8 7 7 6
30 30 31 31 31 31 31 30 29 27 25 23 20 18 16 14 14 14 14 14 13 12 10 9 6 3 3 2 2 1 1 1 1 1 1 2 3 4 6 8 9 11 12 13 15 17 19 21 22 23 24 25 25 27 28 28 27 29 30 31 31 30 27 25 23 20 17 14 13 12 12 13 13 15 15 12 9 8 10 10 9 7 6 6 6
31 31 30 30 30 30 30 28 27 25 23 21 19 17 15 13 12 13 12 11 10 8 7 6 5 4 3 1 1 1 1 0 1 1 1 3 4 5 7 8 9 10 11 13 15 17 19 20 22 23 23 24 25 25 26 27 27 28 29 30 30 30 27 26 25 22 19 16 13 12 11 12 12 14 15 12 8 7 8 9 9 8 8 7 6
27 27 26 26 27 27 26 24 22 21 20 18 16 14 12 10 9 8 7 7 6 6 5 4 4 5 4 2 2 1 1 1 1 1 3 5 6 7 8 8 9 10 11 13 15 17 18 20 22 22 23 24 24 25 26 27 27 27 28 29 29 29 28 27 25 23 21 18 14 12 11 11 11 12 13 10 7 6 6 7 8 10 9 6 4
25 24 24 23 23 22 21 19 18 17 15 14 13 11 9 8 6 5 5 5 6 6 5 3 3 5 5 4 2 1 1 2 3 4 5 7 7 8 9 9 10 11 12 13 15 16 18 19 21 22 23 24 24 25 26 28 27 27 27 28 29 29 29 28 26 24 23 20 17 14 13 11 10 10 10 9 8 8 7 7 8 10 9 5 6
21 21 20 19 18 17 16 16 15 14 12 11 9 8 7 6 6 6 6 6 7 7 6 4 4 5 5 4 2 2 2 3 4 5 6 7 7 8 10 11 12 13 13 13 14 16 17 18 20 22 23 24 24 25 27 28 28 27 27 27 28 29 29 29 27 25 23 21 19 17 15 13 11 9 9 8 8 9 9 9 9 9 7 5 6
15 15 15 14 13 13 12 12 11 10 9 8 6 6 6 6 7 7 7 7 7 7 7 6 5 5 5 4 3 2 3 3 4 5 6 7 8 9 10 11 13 14 14 14 14 16 17 18 20 22 23 23 24 25 27 27 28 28 27 27 28 29 29 29 28 26 25 23 21 19 18 16 14 10 8 8 9 8 9 10 10 9 8 7 5
10 10 9 9 9 8 8 7 6 6 5 5 5 5 6 7 7 7 7 7 6 6 6 6 5 3 3 2 2 2 3 3 4 5 6 7 8 9 10 11 12 13 14 15 15 15 16 17 19 21 21 22 23 25 26 27 27 28 28 27 27 27 28 28 28 27 26 25 23 21 20 19 17 13 10 9 8 7 7 9 9 8 8 8 6
Wind_Direction
240 238 237 235 223 209 212 223 228 232 236 237 235 235 239 245 251 257 258 255 254 255 254 255 261 266 267 263 258 257 253 248 248 250 256 272 288 300 309 321 332 339 345 350 353 355 357 357 353 350 350 347 342 336 329 323 316 309 300 288 277 267 259 252 245 246 252 253 251 253 257 259 262 266 269 271 273 275 276 276 275 275 275 275 275
233 229 229 231 224 213 212 220 226 228 232 236 237 236 237 241 248 254 258 258 258 257 257 257 256 258 263 266 267 268 267 264 263 262 260 261 266 273 282 291 299 309 317 324 330 333 337 342 342 340 339 338 335 332 329 325 320 314 306 296 287 277 268 260 254 250 252 256 257 256 258 260 260 262 263 262 263 266 269 271 272 273 275 275 276
235 229 226 229 226 219 218 221 225 228 231 236 241 243 244 244 248 254 260 264 267 268 268 263 258 254 255 261 266 267 268 268 267 267 267 267 268 269 274 282 289 296 300 306 313 316 319 323 326 326 324 324 325 324 323 321 318 315 312 308 302 295 288 280 273 265 258 257 259 258 258 260 262 263 264 263 262 261 261 262 264 267 269 272 274
250 231 223 224 224 226 228 228 231 236 238 244 250 252 253 254 255 259 264 268 274 279 277 270 265 263 262 264 267 268 270 270 266 264 264 266 267 265 266 272 279 286 291 295 304 309 309 311 313 313 311 310 310 309 308 307 306 305 305 304 302 300 297 293 289 283 275 269 266 264 262 260 259 261 262 263 264 265 264 263 263 264 265 266 269
256 237 225 226 231 240 242 238 241 248 252 259 264 263 263 266 266 264 263 264 269 276 277 274 273 273 273 275 277 278 278 276 273 268 262 260 262 262 261 264 269 276 279 284 295 303 304 303 301 301 301 301 301 300 299 298 297 297 296 296 297 297 297 298 297 294 291 287 282 279 275 272 268 265 263 262 262 263 265 265 266 266 266 267 269
264 259 246 243 246 253 251 243 245 250 254 261 266 265 268 272 275 273 267 264 267 273 274 273 273 273 273 277 282 284 281 280 281 281 274 266 262 262 262 259 260 265 271 281 292 299 301 299 296 295 296 296 295 295 295 295 295 295 295 296 295 294 294 295 296 296 295 294 292 290 287 284 281 278 275 271 267 265 263 263 265 268 268 269 271
279 276 268 265 260 255 249 245 248 251 253 258 261 263 267 272 277 277 271 268 273 279 278 275 273 270 268 274 283 284 280 279 281 283 283 277 269 266 265 263 264 267 271 279 287 292 295 294 292 291 292 292 292 290 290 291 293 294 296 298 297 295 293 292 291 291 291 291 291 290 289 288 287 285 283 281 279 276 272 268 266 267 269 269 269
303 304 299 296 291 278 262 252 251 253 254 259 263 268 272 274 277 279 275 273 275 277 277 276 276 274 270 274 283 282 276 274 274 277 283 278 270 267 267 271 280 282 279 278 282 289 292 290 287 286 287 288 289 288 287 287 290 292 295 297 297 296 295 293 292 291 290 289 288 288 287 287 286 285 285 285 284 284 282 279 276 273 272 270 270
294 295 298 302 303 298 289 276 269 266 266 269 271 274 276 277 278 280 279 277 276 276 277 277 278 277 270 270 280 280 272 267 266 270 278 277 272 269 268 275 287 291 287 285 287 292 294 290 286 284 284 285 286 286 285 285 288 290 293 294 294 294 293 293 293 292 290 289 288 287 287 286 286 284 283 284 284 284 284 285 284 282 278 276 275
287 288 291 293 291 287 283 279 274 273 272 271 272 274 275 275 277 278 277 277 277 277 276 275 274 273 267 267 275 277 272 269 270 272 273 270 270 271 271 278 289 293 292 290 290 293 295 292 289 287 287 286 285 284 283 284 286 289 291 292 292 291 291 292 292 291 290 289 289 289 289 288 288 286 284 283 282 282 283 284 285 285 284 281 280
280 282 282 279 276 274 272 270 267 267 266 264 265 266 268 270 272 274 276 276 275 275 274 272 269 266 266 268 270 272 272 271 269 269 268 265 265 268 272 277 283 287 289 290 289 290 290 289 289 289 288 286 285 285 284 284 286 290 293 293 292 291 292 292 291 291 291 290 291 291 291 290 289 288 287 285 282 281 282 283 284 284 284 282 281
273 274 273 271 269 267 265 263 262 262 262 262 264 266 269 271 271 271 272 272 271 272 272 271 269 267 267 267 268 268 267 266 266 267 268 266 264 266 270 273 276 280 282 283 284 285 285 285 287 288 287 285 285 285 285 287 291 293 294 294 293 292 292 291 291 292 292 291 291 291 291 290 289 288 288 287 284 282 282 282 283 283 283 283 282
266 266 267 268 269 268 266 265 264 263 264 264 267 270 273 274 273 273 272 271 270 269 268 268 268 267 267 266 265 265 265 268 271 271 269 268 267 268 270 272 273 274 274 276 279 281 282 283 284 286 285 284 283 284 286 289 292 293 292 292 293 292 292 292 293 294 294 294 293 292 290 289 288 288 288 287 285 283 282 281 281 281 282 282 282
262 262 264 266 268 268 268 268 267 267 268 268 268 269 270 271 272 272 271 271 271 269 268 268 266 266 266 266 266 266 267 270 273 273 273 273 273 273 273 272 271 271 270 272 274 277 280 280 280 281 282 281 281 282 284 287 289 289 289 289 291 292 293 295 296 297 297 297 296 295 293 291 290 289 288 287 286 285 283 282 281 280 281 280 278
263 263 263 264 267 268 267 267 268 268 268 268 268 268 268 269 269 270 270 270 270 270 270 269 268 267 266 267 269 270 270 271 273 274 275 275 274 274 273 272 272 273 273 272 272 273 276 278 280 281 281 281 281 282 284 286 288 288 288 288 290 292 293 295 297 297 298 298 297 297 295 294 292 291 289 286 284 283 282 281 280 279 278 277 275
264 265 265 263 263 264 264 263 263 264 266 268 270 270 269 269 269 270 270 271 271 271 271 271 271 270 268 267 270 273 274 274 273 273 273 273 272 272 272 271 271 274 276 275 272 272 274 277 279 279 279 281 282 283 285 286 287 288 289 289 290 291 292 294 295 296 296 296 295 295 293 292 291 288 286 283 281 280 279 278 277 277 276 275 273
261 263 264 262 260 261 262 262 263 264 265 269 272 272 272 272 271 270 270 271 272 272 272 272 272 271 271 271 272 275 275 274 272 271 272 273 273 272 271 269 268 269 270 270 269 270 272 274 275 276 278 278 279 280 281 283 285 286 287 287 288 288 289 290 291 293 293 292 292 291 290 289 288 286 284 283 281 280 278 277 278 277 276 275 274
260 261 262 263 262 261 261 263 265 266 268 270 272 273 272 270 269 269 268 267 268 268 269 270 269 269 270 272 274 276 277 275 274 273 272 273 274 273 271 268 264 263 263 264 267 271 273 274 275 276 276 275 275 276 278 280 282 283 284 285 286 287 287 286 287 290 290 289 288 288 287 287 286 286 285 285 284 283 281 280 280 279 277 277 276
258 260 262 265 266 265 264 265 267 268 269 272 274 276 274 270 266 265 264 264 264 265 266 267 267 268 269 271 273 277 280 281 281 281 279 277 276 275 273 270 266 264 264 266 269 273 276 277 276 276 276 276 277 279 281 282 282 282 283 285 285 287 287 286 286 288 288 286 285 285 285 285 285 286 286 287 286 286 285 283 282 280 279 278 278
254 257 259 261 263 265 266 267 268 270 271 273 275 277 276 272 267 263 263 264 265 266 267 268 270 272 273 274 276 278 283 286 287 287 286 283 280 277 276 274 271 270 271 272 273 275 276 276 276 277 278 279 282 284 286 286 286 286 286 286 286 287 287 286 286 287 286 285 284 285 285 285 285 286 286 286 286 285 285 284 284 282 281 280 279
250 253 256 258 260 263 266 268 270 272 274 276 278 279 279 276 271 267 264 264 264 265 266 269 272 275 276 277 278 280 283 286 287 288 288 286 283 281 280 279 277 275 274 274 274 275 276 276 276 277 278 282 287 289 289 288 289 289 288 287 287 287 287 287 287 288 287 287 287 287 287 287 287 286 285 284 283 282 282 281 282 281 281 280 279
250 252 255 258 260 262 264 267 270 272 273 276 280 282 283 281 277 273 269 266 265 265 267 269 272 274 277 278 279 279 280 282 284 285 285 284 282 280 279 279 278 277 275 274 274 274 275 276 276 278 282 287 289 289 288 289 290 290 290 290 290 290 290 290 290 290 289 289 289 288 287 286 285 284 283 282 281 281 280 279 280 279 279 278 278
259 259 259 259 260 262 264 266 269 271 272 276 280 282 283 281 279 276 272 268 267 268 269 271 273 274 276 278 278 278 278 278 279 280 281 280 278 276 276 277 278 278 276 274 273 274 276 278 279 282 285 287 286 286 288 290 291 292 293 293 292 291 290 290 290 290 289 289 288 288 287 286 285 283 283 282 282 282 282 281 280 279 278 278 277
267 265 264 263 263 264 265 266 268 270 272 276 278 279 280 280 278 275 273 272 274 274 274 275 276 277 277 277 277 276 275 275 276 277 278 276 273 274 276 278 279 279 277 275 275 277 280 281 281 282 284 284 285 287 289 291 293 294 294 293 292 291 291 290 290 290 290 290 289 289 289 288 287 286 285 284 284 283 282 281 281 280 279 278 278
263 265 265 266 266 267 267 268 269 270 273 276 277 277 278 279 279 279 280 281 281 280 280 280 280 280 280 278 276 274 273 273 274 273 273 272 272 274 276 277 277 276 276 277 278 279 280 281 282 283 285 286 288 289 291 292 293 292 291 291 291 291 290 290 291 291 291 291 291 291 290 290 289 289 288 287 286 284 284 283 282 281 280 279 277
257 260 263 265 267 269 270 271 272 273 275 277 277 277 277 280 284 285 286 286 284 283 283 283 282 281 280 277 276 275 275 274 273 273 272 270 270 271 271 272 274 277 278 279 278 279 282 284 285 286 287 287 288 289 290 290 289 289 289 289 290 290 290 291 291 291 291 291 291 291 290 290 290 289 288 288 287 286 285 284 283 281 280 279 277
252 257 261 264 267 269 270 270 271 272 272 271 272 273 277 281 283 282 282 283 284 283 283 282 280 277 274 271 273 275 276 276 276 276 272 268 267 269 270 272 277 282 285 286 286 287 288 289 289 288 288 288 287 287 287 287 287 287 288 289 290 291 291 292 292 292 292 292 291 291 290 290 290 289 289 288 287 286 286 285 283 282 281 279 277
253 258 261 263 264 266 268 269 270 270 269 267 268 271 276 278 278 274 274 278 280 280 279 278 275 273 272 273 274 276 276 276 275 272 267 265 268 273 277 282 288 292 293 292 292 292 291 290 289 288 286 286 285 286 287 288 290 291 292 292 293 294 294 293 293 293 292 292 291 291 291 291 290 290 289 289 288 288 288 287 285 284 282 280 277
255 257 260 261 263 265 267 269 267 265 263 261 263 268 272 274 274 272 271 273 274 275 274 274 273 273 274 275 276 276 275 272 267 263 262 267 274 279 284 290 293 292 291 289 288 287 287 286 285 284 285 286 287 290 293 294 295 296 295 295 295 295 294 294 293 293 292 292 291 291 291 291 290 290 290 289 289 289 289 287 286 284 282 280 277
253 253 256 260 262 264 264 263 262 260 257 255 257 263 267 267 267 268 268 268 269 271 272 272 272 273 274 274 274 273 269 262 258 258 264 272 277 281 285 288 288 286 284 283 283 283 284 284 285 286 289 292 295 297 297 297 296 295 294 295 295 294 294 294 294 294 294 294 294 293 293 293 293 292 292 291 291 291 289 287 286 284 283 281 278
253 251 251 253 256 259 259 257 256 255 253 254 258 262 262 262 262 263 263 264 267 271 273 273 273 274 274 271 266 260 255 254 259 266 270 273 277 280 282 283 284 283 282 281 283 284 286 288 291 294 297 299 299 298 297 296 296 296 296 297 298 298 298 298 297 297 297 296 296 295 295 295 295 294 293 293 292 292 290 288 286 285 284 283 280
255 254 252 250 250 253 254 253 252 252 254 258 262 261 258 258 260 261 262 265 269 271 273 275 277 277 276 272 262 253 251 255 262 267 271 274 276 278 280 281 282 282 283 285 287 288 291 295 298 300 300 299 297 297 297 298 300 302 303 305 305 305 304 303 301 300 298 297 296 295 294 294 294 293 294 294 294 294 292 290 289 288 287 286 284
255 254 253 250 250 250 249 249 249 250 253 257 260 260 258 257 258 260 263 267 268 268 271 275 272 262 260 265 266 263 259 258 260 265 268 269 271 273 275 277 278 281 285 288 292 295 298 301 301 299 297 296 297 300 303 306 309 311 312 312 312 310 308 306 303 301 299 297 296 295 295 295 294 294 295 295 295 296 296 295 294 292 291 290 286
255 253 251 251 251 250 249 248 247 247 250 253 256 257 257 257 258 260 263 264 264 265 270 271 260 246 247 253 253 253 255 255 258 260 260 262 266 268 270 274 278 283 287 292 296 299 299 298 296 296 297 300 305 309 313 316 318 319 319 318 317 314 311 308 305 302 300 299 298 298 297 296 296 296 296 295 294 295 296 296 295 293 292 290 285
253 251 250 249 248 247 248 249 249 248 249 250 250 252 254 257 260 260 259 260 263 263 261 256 248 245 249 247 242 246 252 253 254 255 257 260 264 266 270 275 279 284 289 294 297 298 297 297 299 302 307 312 316 319 322 324 325 327 326 325 322 319 315 311 308 305 303 302 301 300 300 299 299 298 296 295 295 295 295 296 295 294 292 287 281
250 249 248 247 245 246 247 248 248 248 247 245 245 248 251 254 257 259 256 255 257 252 240 233 238 244 247 243 242 246 249 249 250 252 254 257 261 266 272 277 280 288 296 300 301 302 303 306 309 314 319 322 324 326 328 331 334 335 334 330 327 323 319 316 313 310 307 305 305 304 303 303 302 299 297 298 300 300 300 299 297 295 292 288 283
248 246 244 243 242 242 242 242 243 243 243 241 241 243 247 251 256 256 252 247 241 223 202 209 226 235 238 239 239 238 239 241 243 244 247 253 262 269 273 277 286 296 302 304 306 309 311 315 319 324 327 328 329 333 337 340 342 340 336 332 329 326 324 322 320 316 314 312 311 309 307 306 304 303 304 307 309 308 305 302 301 299 297 294 292
241 238 236 236 236 236 235 235 234 234 236 239 239 240 245 246 240 231 227 227 218 201 198 207 215 220 224 226 224 223 227 232 237 241 249 257 264 267 270 278 289 298 303 308 313 316 319 324 330 333 333 334 337 341 345 346 345 341 336 334 332 330 328 327 323 320 318 316 315 313 312 312 313 316 319 321 319 314 308 303 302 302 301 299 297
230 228 228 228 228 228 229 229 227 228 232 237 238 238 236 226 208 195 196 202 204 207 208 206 204 206 208 208 208 213 220 229 240 251 259 257 257 262 268 278 290 301 312 320 324 326 330 335 338 338 339 342 344 346 348 348 344 340 339 339 338 337 335 333 329 325 322 320 320 321 325 331 335 334 328 322 319 316 312 306 300 297 296 295 292
211 212 215 219 220 219 220 221 223 226 228 231 237 240 225 199 183 183 191 198 204 207 200 191 188 192 194 197 204 210 212 227 266 286 246 231 238 252 265 281 304 324 333 335 335 336 339 341 342 342 345 346 346 347 348 346 342 341 343 345 345 344 343 340 336 333 331 330 335 343 350 351 347 339 330 324 323 322 318 313 306 301 298 295 292
185 189 195 202 208 210 209 207 208 215 221 224 229 225 203 182 177 183 189 190 190 189 182 177 177 180 184 196 208 207 185 172 231 241 237 240 264 306 314 331 346 348 347 345 343 344 345 344 344 346 348 348 347 348 348 344 341 342 347 350 350 350 349 346 342 340 341 343 347 353 356 353 347 341 332 326 326 325 320 314 309 305 303 301 301
156 164 172 180 188 195 198 197 200 209 214 207 195 181 170 166 168 173 175 174 172 171 170 171 172 174 182 195 204 194 174 172 162 146 353 358 9 359 348 355 0 358 355 351 349 348 347 345 346 350 351 349 349 350 348 344 343 344 349 353 354 353 352 352 350 349 349 347 343 343 347 348 347 344 334 324 324 328 327 322 317 312 307 306 308
146 156 164 170 175 179 183 185 187 186 178 166 155 150 151 156 162 165 165 163 164 168 171 170 168 169 175 181 177 164 151 125 74 50 15 355 358 359 360 2 2 0 358 354 351 351 350 348 350 353 352 351 352 351 347 344 344 347 350 355 357 357 356 358 359 359 357 352 342 336 338 342 347 349 344 332 329 336 339 337 332 325 318 315 314
135 142 146 148 149 149 150 150 148 145 141 139 139 142 148 155 159 160 160 161 166 172 170 161 152 154 161 157 142 120 103 83 47 348 325 342 2 10 10 5 1 1 359 355 353 354 353 352 353 354 353 354 355 352 347 345 348 351 353 357 360 360 0 3 5 5 5 2 355 343 338 340 347 354 352 342 333 341 350 353 351 345 335 327 325
118 121 125 128 129 129 129 127 126 125 125 127 130 134 139 144 147 150 152 153 155 156 150 139 135 151 164 135 105 96 123 121 102 305 320 358 8 6 8 7 4 1 359 356 356 357 357 355 355 354 354 357 358 354 349 349 352 354 357 1 2 2 2 6 9 7 3 1 356 347 343 348 354 358 355 346 334 340 355 1 360 356 348 340 337
107 108 110 113 116 117 117 116 116 117 118 120 123 124 127 131 136 139 140 138 133 129 128 134 151 170 177 153 125 173 201 132 55 347 354 14 8 360 4 6 0 357 360 0 359 359 359 357 355 355 357 360 360 356 353 356 358 358 359 3 4 3 4 8 11 10 4 358 352 348 350 357 360 359 356 348 334 337 354 360 358 354 344 335 336
104 104 105 108 111 112 111 110 111 112 113 115 117 118 118 119 123 126 128 126 123 122 128 144 152 148 146 150 156 175 181 62 41 12 15 18 7 354 354 355 351 356 5 4 359 359 1 359 356 356 359 2 1 358 358 2 3 1 1 4 6 7 8 10 12 12 10 5 360 358 1 4 1 355 353 352 348 349 355 358 359 359 357 354 17
103 104 106 109 112 113 112 112 112 113 114 115 116 117 120 123 130 138 140 137 133 133 141 151 134 115 113 116 119 107 57 45 35 21 20 18 4 347 346 348 348 355 5 5 360 0 2 360 357 359 2 2 359 359 3 6 5 2 3 5 7 10 12 13 12 13 14 12 9 8 11 15 11 357 352 2 18 16 8 7 9 9 12 34 65
106 107 109 110 112 114 116 118 120 121 122 121 121 124 129 132 136 139 137 131 128 127 129 126 108 98 99 100 86 53 34 28 20 13 14 14 1 347 346 349 349 353 359 1 360 1 1 359 360 3 3 1 359 0 5 8 6 4 5 7 8 11 14 15 13 13 15 15 15 14 14 19 23 11 0 15 32 25 13 17 26 22 21 43 73
106 109 113 116 119 121 124 126 127 126 123 122 122 124 128 132 134 133 127 122 118 116 115 111 103 96 93 90 74 39 14 7 3 1 3 3 357 349 349 351 352 353 354 355 358 0 360 359 3 5 3 0 360 3 6 7 6 5 6 7 8 10 14 15 15 15 15 16 18 18 16 19 26 26 21 31 41 31 17 21 29 29 28 43 78
108 113 116 119 123 125 124 125 125 123 121 123 126 128 130 133 131 125 118 113 109 108 107 105 99 87 76 68 43 357 343 345 346 345 346 349 349 349 349 351 352 353 352 353 356 357 357 359 4 6 1 359 2 7 8 6 6 7 8 7 7 8 11 15 16 17 16 16 18 20 20 20 23 27 33 40 42 34 21 20 22 22 27 38 55
Height
3104 3105 3106 3108 3109 3111 3113 3115 3116 3116 3117 3117 3119 3121 3122 3122 3123 3124 3125 3126 3127 3128 3128 3129 3130 3131 3131 3132 3132 3132 3132 3132 3132 3132 3132 3133 3133 3133 3133 3133 3133 3133 3132 3132 3132 3132 3132 3132 3131 3131 3131 3130 3130 3130 3129 3129 3129 3128 3128 3128 3128 3128 3129 3129 3129 3129 3128 3128 3129 3128 3128 3128 3128 3127 3127 3128 3127 3126 3126 3127 3127 3127 3127 3127 3127
3102 3103 3105 3106 3107 3108 3110 3112 3113 3113 3114 3115 3116 3118 3119 3120 3121 3122 3122 3123 3125 3126 3127 3127 3128 3128 3129 3130 3131 3131 3132 3132 3132 3132 3132 3132 3132 3132 3132 3132 3132 3132 3132 3132 3131 3131 3131 3131 3131 3130 3130 3130 3129 3129 3128 3128 3128 3127 3127 3127 3127 3127 3127 3127 3127 3127 3127 3127 3127 3127 3126 3126 3126 3126 3125 3126 3125 3125 3124 3124 3124 3124 3124 3124 3124
3100 3102 3104 3105 3106 3107 3107 3109 3110 3111 3112 3113 3115 3116 3117 3118 3119 3120 3120 3121 3123 3124 3125 3126 3125 3125 3126 3127 3128 3129 3130 3130 3130 3130 3130 3130 3130 3131 3131 3130 3130 3131 3131 3131 3130 3130 3129 3129 3130 3129 3129 3128 3128 3127 3127 3126 3126 3125 3125 3125 3125 3125 3125 3125 3125 3125 3125 3125 3124 3124 3124 3124 3124 3123 3123 3123 3123 3122 3122 3122 3122 3122 3121 3121 3121
3098 3101 3102 3103 3105 3106 3106 3108 3109 3111 3112 3114 3115 3116 3116 3117 3118 3118 3119 3120 3121 3121 3122 3123 3124 3124 3124 3124 3125 3125 3126 3126 3127 3128 3128 3128 3128 3129 3129 3129 3129 3129 3129 3129 3129 3129 3128 3128 3128 3127 3127 3127 3126 3126 3126 3125 3125 3124 3124 3123 3123 3123 3122 3122 3122 3122 3123 3123 3122 3121 3121 3121 3121 3120 3119 3119 3119 3119 3119 3119 3119 3119 3119 3119 3119
3098 3099 3100 3101 3102 3104 3106 3108 3110 3111 3112 3114 3114 3115 3115 3115 3116 3117 3117 3118 3118 3119 3119 3120 3121 3123 3123 3123 3122 3122 3122 3122 3124 3125 3126 3126 3126 3126 3127 3127 3127 3127 3127 3126 3127 3127 3127 3127 3126 3126 3125 3125 3124 3124 3123 3123 3122 3122 3122 3121 3121 3120 3120 3119 3119 3118 3119 3119 3119 3119 3118 3118 3117 3117 3116 3115 3115 3115 3115 3115 3115 3116 3116 3116 3116
3097 3098 3099 3100 3101 3103 3104 3105 3107 3108 3110 3110 3111 3112 3112 3113 3113 3114 3114 3115 3115 3116 3118 3118 3119 3120 3121 3120 3120 3119 3119 3120 3121 3123 3124 3124 3124 3124 3124 3125 3124 3124 3124 3124 3124 3124 3124 3124 3124 3124 3123 3122 3122 3121 3121 3120 3120 3119 3119 3118 3118 3118 3117 3116 3116 3115 3115 3115 3115 3115 3115 3115 3114 3113 3113 3112 3112 3111 3111 3111 3112 3112 3112 3112 3112
3096 3097 3098 3099 3100 3101 3101 3102 3103 3105 3106 3107 3108 3108 3109 3110 3110 3110 3111 3111 3112 3114 3115 3116 3116 3117 3118 3117 3116 3117 3117 3118 3120 3120 3120 3121 3121 3121 3121 3122 3122 3122 3122 3122 3122 3121 3121 3121 3121 3120 3120 3119 3119 3118 3118 3118 3117 3116 3116 3116 3115 3115 3114 3114 3113 3112 3112 3112 3111 3111 3111 3111 3111 3110 3109 3108 3108 3108 3107 3107 3108 3108 3108 3108 3108
3095 3096 3096 3097 3098 3098 3099 3100 3100 3102 3103 3104 3104 3105 3106 3106 3106 3106 3107 3108 3109 3111 3112 3113 3113 3113 3114 3114 3113 3113 3113 3115 3117 3118 3118 3117 3117 3117 3117 3118 3118 3119 3118 3118 3119 3119 3118 3117 3116 3116 3116 3116 3116 3115 3115 3114 3114 3114 3113 3113 3112 3111 3111 3110 3110 3109 3109 3108 3108 3107 3107 3107 3107 3106 3106 3105 3104 3104 3103 3103 3104 3104 3104 3104 3104
3094 3095 3095 3096 3096 3096 3097 3098 3099 3099 3100 3100 3101 3101 3102 3103 3103 3103 3103 3105 3106 3108 3108 3109 3109 3109 3109 3110 3110 3109 3110 3111 3113 3115 3115 3115 3114 3113 3113 3113 3113 3114 3114 3114 3114 3115 3114 3113 3113 3112 3112 3112 3112 3111 3111 3111 3110 3110 3110 3109 3109 3108 3107 3106 3106 3105 3104 3104 3104 3103 3103 3103 3103 3102 3101 3101 3100 3099 3099 3099 3099 3099 3099 3099 3099
3093 3093 3094 3094 3094 3095 3095 3096 3097 3097 3097 3098 3098 3098 3099 3099 3100 3100 3101 3102 3103 3104 3105 3105 3105 3106 3106 3106 3106 3106 3107 3108 3110 3111 3112 3111 3110 3109 3109 3109 3108 3108 3109 3109 3110 3110 3110 3109 3109 3108 3108 3108 3107 3107 3107 3106 3106 3106 3106 3105 3105 3104 3103 3102 3101 3100 3100 3099 3099 3099 3098 3098 3098 3097 3096 3096 3095 3095 3095 3094 3094 3094 3094 3093 3094
3091 3091 3092 3093 3093 3094 3094 3095 3095 3095 3095 3096 3096 3096 3096 3097 3098 3098 3099 3100 3100 3101 3101 3102 3102 3102 3103 3103 3103 3103 3104 3105 3106 3107 3108 3108 3107 3106 3105 3105 3105 3104 3104 3105 3105 3106 3106 3105 3104 3105 3105 3104 3103 3103 3103 3102 3102 3102 3102 3101 3100 3099 3099 3098 3097 3096 3095 3095 3095 3094 3093 3093 3093 3092 3091 3091 3090 3089 3089 3089 3088 3088 3088 3087 3088
3089 3089 3090 3091 3092 3092 3093 3093 3093 3093 3093 3094 3094 3094 3094 3094 3095 3095 3096 3096 3097 3097 3098 3098 3098 3099 3099 3100 3100 3100 3101 3102 3103 3103 3103 3103 3103 3102 3102 3102 3102 3101 3101 3101 3101 3102 3101 3101 3101 3101 3100 3100 3099 3098 3098 3098 3098 3097 3097 3096 3096 3095 3094 3093 3092 3091 3090 3090 3090 3090 3089 3087 3087 3087 3086 3084 3084 3083 3083 3084 3083 3082 3082 3081 3081
3087 3087 3088 3088 3089 3089 3090 3090 3090 3091 3091 3091 3091 3091 3091 3091 3091 3091 3092 3092 3093 3093 3094 3094 3094 3095 3095 3096 3096 3096 3097 3098 3098 3098 3098 3099 3098 3098 3098 3098 3098 3098 3098 3097 3098 3098 3098 3097 3097 3096 3096 3095 3094 3094 3094 3094 3094 3093 3092 3092 3091 3090 3089 3088 3087 3086 3085 3085 3084 3085 3084 3083 3082 3082 3081 3079 3077 3077 3077 3077 3077 3076 3076 3076 3075
3084 3085 3085 3085 3086 3086 3087 3087 3087 3087 3088 3088 3088 3088 3088 3088 3088 3088 3089 3089 3089 3089 3090 3090 3091 3091 3091 3091 3091 3092 3093 3093 3093 3093 3094 3094 3094 3094 3094 3094 3094 3094 3093 3093 3094 3094 3094 3093 3092 3091 3091 3090 3089 3089 3089 3089 3089 3089 3088 3087 3087 3086 3085 3084 3083 3081 3080 3079 3078 3078 3078 3077 3076 3076 3076 3074 3072 3071 3071 3071 3070 3070 3069 3070 3069
3081 3081 3082 3082 3082 3083 3083 3083 3084 3084 3084 3085 3085 3085 3085 3086 3086 3086 3086 3086 3086 3086 3086 3087 3087 3087 3087 3087 3087 3087 3088 3089 3089 3089 3089 3090 3090 3090 3090 3090 3089 3089 3089 3089 3090 3089 3088 3088 3087 3086 3086 3085 3084 3084 3084 3083 3083 3083 3082 3082 3081 3081 3080 3079 3078 3076 3074 3073 3072 3071 3071 3071 3070 3070 3070 3069 3067 3066 3065 3064 3064 3064 3063 3063 3063
3077 3078 3079 3079 3080 3080 3080 3080 3081 3081 3082 3082 3082 3082 3083 3083 3083 3083 3083 3083 3083 3083 3083 3083 3083 3083 3083 3083 3083 3084 3085 3086 3086 3086 3085 3086 3086 3086 3086 3086 3086 3085 3085 3085 3085 3084 3083 3083 3082 3082 3081 3080 3080 3079 3079 3078 3077 3077 3076 3075 3075 3074 3074 3073 3072 3070 3069 3068 3067 3066 3065 3065 3065 3064 3064 3063 3062 3061 3060 3059 3058 3058 3057 3056 3057
3073 3074 3075 3075 3076 3076 3076 3077 3078 3078 3079 3079 3079 3079 3080 3080 3080 3080 3080 3080 3079 3079 3079 3079 3079 3079 3079 3080 3080 3080 3081 3081 3081 3081 3081 3081 3082 3082 3082 3082 3082 3082 3081 3081 3080 3080 3079 3079 3078 3078 3077 3077 3076 3075 3074 3074 3073 3072 3071 3070 3070 3069 3069 3068 3067 3065 3064 3063 3061 3060 3059 3059 3058 3058 3058 3057 3056 3055 3054 3053 3053 3052 3050 3049 3050
3070 3070 3071 3071 3072 3073 3073 3073 3074 3074 3075 3075 3076 3076 3077 3077 3077 3077 3077 3077 3076 3076 3076 3075 3075 3075 3076 3077 3077 3077 3077 3077 3077 3077 3078 3078 3077 3078 3078 3078 3078 3078 3077 3076 3075 3075 3075 3074 3074 3074 3073 3072 3071 3071 3070 3070 3069 3068 3067 3066 3065 3064 3063 3063 3061 3060 3059 3058 3057 3055 3054 3053 3052 3052 3051 3050 3049 3048 3047 3046 3046 3045 3043 3043 3042
3066 3067 3067 3067 3068 3069 3069 3069 3070 3070 3071 3071 3072 3073 3073 3073 3074 3074 3073 3073 3073 3072 3072 3072 3072 3072 3073 3074 3074 3073 3073 3073 3073 3073 3074 3074 3074 3074 3074 3074 3074 3073 3072 3071 3071 3070 3069 3069 3069 3068 3067 3066 3066 3066 3065 3065 3063 3062 3061 3060 3059 3059 3058 3057 3056 3055 3053 3052 3051 3050 3049 3048 3047 3046 3045 3044 3043 3042 3040 3039 3038 3037 3036 3036 3035
3062 3063 3063 3064 3064 3064 3065 3065 3066 3066 3066 3067 3068 3068 3069 3069 3070 3070 3069 3069 3069 3068 3068 3068 3068 3068 3069 3070 3070 3070 3069 3069 3069 3069 3069 3069 3070 3070 3070 3070 3069 3068 3068 3067 3066 3065 3065 3064 3063 3062 3062 3061 3061 3061 3060 3058 3057 3056 3056 3054 3053 3052 3052 3051 3049 3048 3047 3046 3045 3044 3043 3042 3041 3040 3039 3038 3037 3036 3034 3033 3031 3030 3029 3029 3028
3057 3058 3058 3059 3060 3060 3061 3061 3061 3062 3062 3062 3062 3063 3064 3065 3065 3065 3065 3065 3065 3064 3064 3064 3064 3065 3065 3066 3066 3066 3066 3065 3065 3065 3065 3065 3065 3065 3065 3065 3065 3064 3063 3063 3062 3061 3060 3059 3058 3058 3057 3057 3056 3055 3054 3053 3052 3051 3050 3049 3048 3046 3045 3044 3043 3042 3040 3039 3038 3037 3036 3035 3034 3033 3032 3031 3030 3029 3028 3027 3025 3024 3023 3022 3021
3051 3052 3053 3054 3054 3055 3056 3057 3057 3057 3057 3057 3057 3057 3058 3059 3060 3060 3060 3060 3060 3060 3060 3060 3060 3061 3061 3061 3061 3061 3061 3061 3061 3061 3061 3061 3061 3061 3060 3060 3060 3060 3059 3058 3057 3056 3055 3055 3054 3053 3053 3052 3051 3050 3048 3048 3047 3046 3045 3043 3042 3041 3039 3038 3036 3035 3034 3033 3031 3031 3030 3029 3028 3027 3026 3024 3023 3022 3021 3021 3019 3018 3016 3015 3014
3046 3047 3048 3048 3049 3050 3051 3052 3052 3052 3053 3052 3052 3052 3052 3053 3054 3055 3054 3055 3055 3056 3056 3056 3056 3056 3056 3056 3056 3056 3056 3056 3056 3056 3056 3056 3056 3056 3056 3056 3056 3055 3054 3054 3053 3052 3051 3051 3050 3049 3049 3048 3046 3045 3044 3043 3042 3041 3040 3038 3037 3035 3033 3032 3030 3029 3028 3026 3025 3024 3023 3021 3020 3019 3018 3017 3016 3015 3014 3013 3013 3011 3010 3008 3007
3041 3042 3042 3043 3044 3045 3045 3046 3047 3047 3048 3048 3048 3047 3048 3048 3049 3049 3049 3050 3051 3051 3051 3051 3051 3051 3051 3051 3051 3051 3051 3050 3050 3050 3051 3051 3051 3051 3051 3051 3051 3050 3050 3049 3049 3048 3048 3047 3046 3045 3044 3043 3042 3041 3039 3038 3037 3036 3034 3033 3031 3029 3027 3026 3024 3022 3021 3019 3018 3016 3015 3013 3012 3011 3010 3009 3008 3007 3006 3005 3005 3004 3003 3002 3001
3036 3037 3037 3038 3038 3039 3040 3041 3042 3042 3043 3043 3043 3042 3042 3043 3043 3043 3044 3046 3047 3046 3045 3046 3046 3046 3046 3045 3045 3045 3045 3045 3045 3045 3045 3046 3046 3047 3047 3046 3046 3046 3046 3045 3045 3044 3044 3043 3042 3041 3040 3039 3038 3036 3035 3034 3033 3031 3029 3027 3025 3024 3022 3020 3018 3016 3014 3012 3011 3009 3007 3006 3004 3003 3002 3000 2999 2998 2997 2996 2996 2996 2995 2994 2993
3031 3032 3032 3033 3034 3035 3035 3036 3037 3037 3038 3038 3037 3037 3037 3038 3038 3038 3038 3040 3041 3040 3040 3040 3040 3040 3040 3040 3040 3040 3040 3039 3039 3040 3040 3041 3042 3042 3042 3042 3041 3042 3041 3041 3041 3040 3040 3040 3039 3038 3036 3035 3034 3033 3031 3029 3027 3026 3024 3022 3020 3018 3016 3014 3012 3010 3008 3006 3004 3002 3000 2998 2997 2995 2994 2992 2991 2990 2989 2988 2987 2987 2987 2986 2986
3026 3027 3027 3028 3029 3030 3031 3032 3032 3033 3033 3033 3032 3032 3033 3034 3034 3034 3034 3034 3035 3035 3035 3035 3035 3035 3036 3036 3036 3036 3035 3035 3035 3036 3036 3037 3037 3037 3037 3037 3037 3037 3037 3037 3037 3037 3036 3036 3035 3034 3033 3031 3030 3028 3026 3025 3023 3021 3019 3017 3015 3013 3011 3008 3006 3003 3001 2999 2997 2995 2993 2991 2989 2988 2986 2984 2983 2982 2981 2980 2979 2978 2978 2978 2978
3022 3022 3023 3023 3024 3025 3026 3027 3028 3028 3028 3027 3028 3028 3029 3030 3030 3031 3031 3030 3030 3030 3031 3031 3031 3031 3032 3032 3032 3031 3031 3031 3032 3032 3032 3032 3033 3033 3033 3033 3034 3034 3033 3033 3033 3033 3033 3032 3031 3030 3029 3027 3025 3024 3022 3020 3018 3016 3014 3011 3009 3007 3004 3002 2999 2997 2994 2992 2989 2987 2985 2983 2982 2980 2978 2976 2974 2973 2972 2971 2969 2969 2969 2969 2969
3017 3017 3018 3018 3019 3021 3022 3023 3023 3023 3022 3022 3023 3024 3025 3026 3027 3027 3027 3026 3026 3026 3027 3027 3027 3027 3027 3028 3028 3027 3027 3027 3027 3028 3028 3029 3029 3030 3030 3030 3031 3031 3030 3030 3030 3030 3029 3028 3027 3026 3024 3023 3021 3019 3017 3015 3013 3011 3008 3006 3004 3001 2998 2995 2993 2990 2988 2985 2982 2980 2978 2976 2974 2972 2970 2968 2966 2965 2964 2962 2961 2960 2960 2960 2960
3011 3012 3012 3013 3014 3016 3017 3018 3018 3017 3017 3018 3020 3021 3022 3022 3023 3023 3023 3023 3023 3023 3023 3023 3023 3023 3023 3024 3024 3023 3023 3023 3024 3024 3025 3026 3026 3027 3027 3027 3028 3028 3028 3027 3027 3026 3025 3024 3023 3022 3020 3019 3017 3015 3013 3011 3009 3006 3004 3001 2998 2995 2992 2989 2986 2983 2980 2978 2975 2972 2970 2967 2965 2963 2962 2960 2959 2958 2957 2955 2954 2953 2952 2951 2951
3004 3005 3006 3007 3008 3010 3012 3012 3012 3012 3013 3014 3016 3017 3018 3019 3019 3019 3019 3019 3019 3019 3019 3020 3020 3020 3020 3019 3019 3019 3020 3021 3021 3022 3023 3024 3024 3024 3025 3025 3025 3025 3024 3024 3023 3023 3022 3021 3019 3018 3016 3015 3013 3011 3009 3007 3004 3002 2999 2996 2993 2989 2986 2982 2979 2976 2973 2970 2967 2965 2962 2960 2958 2956 2955 2953 2952 2952 2951 2949 2948 2946 2945 2944 2944
2997 2998 3000 3001 3003 3005 3006 3007 3007 3007 3009 3011 3012 3013 3014 3015 3015 3016 3016 3016 3016 3016 3016 3016 3016 3016 3016 3016 3016 3017 3018 3019 3019 3020 3021 3022 3022 3022 3022 3022 3022 3021 3021 3020 3020 3019 3019 3017 3016 3014 3013 3011 3009 3007 3005 3002 2999 2996 2993 2990 2986 2983 2979 2975 2972 2969 2966 2963 2961 2959 2957 2955 2953 2951 2949 2948 2947 2945 2944 2944 2943 2941 2940 2939 2938
2990 2992 2994 2996 2997 2999 3000 3001 3002 3003 3005 3007 3008 3009 3010 3011 3012 3012 3012 3012 3013 3013 3013 3013 3013 3013 3014 3014 3014 3015 3016 3017 3018 3019 3019 3020 3020 3020 3020 3020 3019 3019 3018 3018 3017 3016 3016 3014 3013 3012 3010 3008 3006 3003 3001 2998 2994 2991 2987 2984 2980 2977 2973 2969 2966 2963 2960 2958 2955 2953 2951 2949 2947 2945 2944 2943 2941 2940 2939 2939 2938 2937 2936 2935 2934
2983 2985 2988 2990 2992 2994 2995 2996 2997 2999 3001 3002 3003 3005 3006 3007 3008 3008 3009 3009 3009 3010 3010 3010 3010 3011 3012 3012 3013 3014 3015 3016 3016 3017 3017 3017 3017 3017 3017 3017 3017 3017 3016 3016 3015 3014 3013 3012 3011 3009 3007 3005 3002 3000 2997 2993 2990 2987 2983 2980 2976 2972 2969 2965 2961 2958 2956 2953 2951 2948 2946 2945 2943 2941 2940 2939 2937 2936 2935 2934 2934 2933 2932 2931 2931
2976 2979 2981 2984 2986 2988 2990 2991 2993 2995 2997 2998 3000 3001 3002 3003 3004 3005 3006 3006 3007 3007 3007 3008 3009 3009 3010 3011 3012 3012 3013 3014 3014 3014 3015 3015 3015 3015 3015 3016 3015 3015 3014 3014 3013 3012 3011 3009 3008 3006 3004 3001 2998 2995 2993 2990 2987 2983 2979 2975 2972 2968 2964 2960 2957 2954 2951 2949 2946 2944 2942 2941 2939 2937 2936 2935 2934 2933 2932 2931 2930 2929 2928 2928 2927
2969 2972 2975 2978 2980 2983 2985 2987 2989 2991 2993 2994 2996 2997 2999 3000 3001 3002 3003 3004 3004 3004 3005 3006 3007 3008 3009 3009 3010 3011 3011 3012 3012 3013 3013 3013 3013 3013 3014 3013 3013 3013 3013 3012 3011 3010 3008 3007 3005 3003 3000 2998 2995 2992 2989 2986 2983 2979 2975 2971 2967 2963 2959 2956 2953 2950 2947 2945 2943 2941 2939 2937 2936 2934 2933 2932 2931 2929 2928 2928 2927 2926 2925 2925 2924
2962 2966 2969 2972 2975 2978 2980 2983 2985 2988 2989 2991 2992 2994 2995 2996 2997 2999 3000 3001 3001 3003 3004 3006 3006 3007 3008 3008 3009 3009 3010 3010 3011 3011 3011 3012 3012 3012 3012 3011 3011 3011 3011 3010 3009 3007 3006 3004 3002 3000 2997 2995 2992 2989 2986 2982 2978 2975 2971 2967 2963 2959 2956 2953 2949 2946 2944 2942 2940 2938 2936 2934 2933 2932 2930 2929 2928 2927 2926 2925 2924 2924 2923 2923 2922
2956 2960 2963 2967 2970 2973 2976 2979 2981 2984 2986 2988 2990 2991 2992 2994 2995 2996 2997 2998 3000 3001 3003 3004 3005 3006 3006 3007 3007 3008 3008 3009 3009 3010 3010 3011 3011 3010 3010 3010 3010 3010 3009 3008 3007 3006 3004 3002 2999 2997 2994 2991 2988 2985 2982 2978 2975 2972 2969 2965 2961 2957 2953 2950 2947 2944 2941 2939 2937 2935 2934 2932 2931 2930 2928 2927 2926 2925 2924 2924 2923 2922 2922 2921 2921
2950 2954 2958 2962 2966 2969 2973 2976 2978 2981 2983 2985 2987 2988 2989 2991 2992 2994 2996 2997 2999 3000 3001 3002 3003 3004 3005 3006 3006 3007 3007 3008 3008 3009 3009 3009 3009 3009 3009 3009 3009 3008 3008 3007 3005 3004 3001 2999 2997 2994 2991 2988 2985 2982 2979 2976 2974 2971 2967 2962 2958 2955 2951 2948 2945 2942 2939 2937 2935 2934 2933 2931 2930 2929 2928 2926 2925 2924 2923 2923 2922 2921 2920 2919 2919
2945 2950 2955 2959 2963 2967 2970 2973 2976 2979 2981 2983 2984 2986 2987 2989 2991 2993 2995 2996 2998 2999 3000 3001 3002 3003 3004 3005 3006 3006 3007 3007 3007 3007 3008 3008 3008 3008 3008 3008 3008 3007 3006 3005 3003 3001 2999 2997 2994 2992 2989 2986 2983 2980 2978 2975 2973 2969 2965 2960 2956 2953 2949 2946 2943 2941 2938 2936 2934 2933 2932 2931 2930 2928 2927 2926 2924 2923 2922 2921 2920 2919 2919 2918 2917
2945 2950 2955 2959 2962 2965 2968 2971 2974 2977 2979 2981 2983 2984 2986 2988 2990 2992 2994 2995 2997 2998 2999 3000 3002 3003 3004 3004 3005 3005 3006 3007 3007 3007 3006 3007 3007 3007 3007 3007 3006 3006 3005 3003 3001 2999 2998 2995 2993 2990 2987 2984 2981 2979 2976 2974 2971 2967 2963 2959 2955 2951 2948 2945 2942 2939 2937 2935 2934 2933 2932 2931 2929 2928 2926 2925 2924 2922 2921 2920 2919 2918 2917 2916 2915
2946 2951 2955 2958 2962 2965 2968 2971 2973 2976 2978 2979 2981 2983 2985 2987 2990 2992 2993 2995 2996 2998 2999 3000 3001 3003 3003 3004 3004 3005 3006 3006 3006 3006 3005 3006 3006 3006 3005 3005 3005 3004 3003 3001 3000 2998 2996 2994 2992 2988 2985 2983 2980 2977 2975 2972 2969 2966 2962 2958 2954 2950 2947 2944 2940 2938 2936 2934 2933 2932 2931 2930 2928 2926 2925 2924 2922 2921 2920 2918 2917 2916 2916 2915 2914
2950 2953 2956 2959 2962 2965 2968 2970 2972 2975 2977 2979 2981 2983 2986 2988 2990 2992 2993 2995 2996 2998 2999 3001 3002 3003 3003 3003 3004 3005 3005 3005 3005 3005 3005 3005 3006 3005 3004 3004 3004 3003 3002 3000 2999 2997 2995 2993 2990 2987 2984 2982 2979 2976 2973 2971 2968 2964 2960 2956 2953 2949 2946 2942 2939 2937 2935 2934 2933 2932 2930 2929 2927 2925 2924 2922 2921 2920 2918 2917 2916 2915 2914 2914 2913
2953 2955 2958 2960 2963 2965 2968 2970 2973 2975 2977 2980 2982 2985 2987 2989 2991 2993 2994 2996 2997 2998 3000 3001 3002 3002 3002 3003 3003 3004 3004 3004 3004 3005 3005 3005 3005 3004 3004 3003 3003 3002 3001 2999 2998 2996 2994 2992 2989 2986 2984 2981 2978 2975 2972 2969 2966 2963 2959 2955 2951 2948 2945 2942 2939 2936 2934 2933 2932 2931 2930 2928 2927 2925 2923 2921 2920 2919 2918 2916 2915 2914 2914 2913 2912
2958 2959 2961 2963 2965 2967 2970 2972 2975 2977 2980 2982 2985 2987 2989 2991 2993 2994 2995 2996 2997 2998 2999 3000 3001 3001 3002 3003 3003 3004 3004 3004 3004 3005 3005 3005 3003 3003 3003 3003 3002 3001 3000 2999 2997 2995 2993 2991 2989 2986 2983 2980 2977 2975 2972 2969 2965 2962 2959 2955 2951 2947 2944 2941 2938 2936 2934 2933 2932 2930 2929 2927 2926 2924 2922 2921 2920 2919 2918 2917 2916 2915 2914 2913 2913
2965 2966 2967 2969 2971 2972 2975 2977 2979 2982 2984 2986 2988 2989 2990 2992 2993 2994 2995 2996 2997 2998 2999 3000 3001 3002 3002 3003 3003 3003 3003 3004 3005 3005 3004 3003 3003 3003 3002 3002 3001 3001 2999 2998 2996 2994 2992 2990 2988 2986 2983 2980 2977 2975 2972 2969 2965 2962 2959 2955 2951 2948 2945 2942 2938 2936 2934 2933 2931 2930 2928 2927 2925 2924 2922 2921 2920 2919 2918 2917 2916 2915 2914 2913 2913
2971 2972 2973 2975 2976 2977 2979 2981 2983 2985 2986 2988 2989 2991 2992 2993 2994 2995 2996 2997 2998 2999 3000 3000 3001 3002 3003 3003 3003 3003 3004 3005 3005 3004 3003 3003 3002 3002 3002 3002 3001 3000 2998 2996 2995 2993 2991 2989 2987 2985 2982 2980 2977 2975 2972 2969 2965 2962 2959 2956 2953 2949 2945 2942 2939 2937 2935 2933 2931 2929 2927 2926 2925 2923 2922 2921 2920 2919 2919 2918 2917 2916 2915 2914 2913
2976 2977 2978 2979 2980 2982 2983 2984 2986 2988 2989 2990 2991 2992 2994 2995 2995 2996 2997 2998 2999 3000 3001 3001 3001 3002 3003 3003 3003 3003 3004 3005 3004 3003 3003 3002 3002 3002 3002 3001 3000 2999 2997 2996 2994 2992 2991 2989 2987 2984 2982 2979 2977 2975 2972 2968 2965 2963 2960 2957 2954 2950 2946 2943 2940 2937 2935 2933 2931 2929 2927 2926 2924 2923 2922 2921 2921 2920 2919 2919 2918 2917 2916 2914 2914
2981 2982 2983 2984 2985 2985 2986 2987 2989 2990 2991 2992 2993 2994 2995 2996 2996 2997 2998 2999 3000 3000 3001 3001 3001 3002 3002 3003 3003 3003 3004 3004 3003 3003 3002 3002 3002 3002 3002 3001 2999 2998 2997 2995 2994 2992 2990 2988 2986 2984 2981 2979 2977 2974 2971 2968 2966 2963 2961 2958 2955 2951 2947 2944 2941 2938 2936 2934 2932 2930 2928 2926 2924 2923 2922 2921 2921 2920 2920 2919 2918 2917 2916 2915 2915
2985 2986 2987 2987 2988 2988 2989 2990 2991 2992 2993 2993 2994 2995 2996 2996 2997 2998 2998 2999 2999 3000 3001 3001 3001 3002 3002 3002 3003 3003 3003 3003 3002 3002 3002 3002 3002 3001 3001 3000 2998 2997 2996 2995 2993 2992 2990 2988 2985 2983 2981 2979 2977 2974 2971 2969 2966 2964 2961 2958 2955 2952 2949 2946 2943 2940 2937 2934 2932 2930 2928 2926 2924 2923 2922 2921 2921 2921 2920 2919 2919 2918 2917 2916 2916
2988 2988 2989 2989 2990 2990 2991 2992 2992 2993 2994 2994 2995 2996 2996 2997 2997 2998 2998 2999 2999 3000 3000 3001 3001 3001 3002 3002 3002 3002 3002 3002 3002 3001 3001 3001 3001 3000 3000 2999 2998 2996 2995 2994 2993 2991 2989 2987 2985 2983 2981 2980 2977 2974 2971 2969 2967 2964 2961 2958 2956 2953 2951 2947 2944 2941 2938 2935 2933 2931 2929 2927 2926 2924 2923 2922 2921 2921 2921 2920 2920 2919 2918 2917 2917